Location: St. Louis
(38.6270°N, 90.1994°W)
Time: 09:47:17
(UTC-06:00)

Vanguard 2 Rocket - Pass Details

Date: 08 December 2021
Orbit: 553 x 3325 km, 32.9° (Epoch: 23 January)

Event Time Altitude Azimuth Distance (km) Brightness Sun altitude
Rises 20:35:58 0° 271° (W) 3,698 10.8 -45.4°
Reaches altitude 10° 20:38:14 10° 264° (W) 3,001 10.1 -45.8°
Enters shadow 20:41:48 31° 243° (WSW) 2,192 9.0 -46.5°
Maximum altitude 20:45:24 45° 194° (SSW) 2,071 - -47.2°
Drops below altitude 10° 20:57:45 10° 128° (SE) 5,074 - -49.6°
Sets 21:02:52 0° 123° (ESE) 6,497 - -50.6°
